Weather History for KPBG - March, 2013

Change the Weather History Date:

Tuesday, March 19, 2013

  Actual Average Record
Temperature  
Mean Temperature 31 °F 31 °F  
Max Temperature 33 °F 41 °F 74 °F (2012)
Min Temperature 28 °F 22 °F -14 °F (1993)
Degree Days  
Heating Degree Days 34 34  
Month to date heating degree days 656 693  
Since 1 July heating degree days 5807 6305  
Cooling Degree Days 0 0  
Month to date cooling degree days 0 0  
Year to date cooling degree days 0 0  
Moisture  
Dew Point 28 °F    
Average Humidity 89    
Maximum Humidity 100    
Minimum Humidity 78    
Precipitation  
Precipitation 0.18 in - 0.35 in (1984)
Month to date precipitation 0.88  
Year to date precipitation 2.36  
Sea Level Pressure  
Sea Level Pressure 29.85 in    
Wind  
Wind Speed 9 mph (SSE)    
Max Wind Speed 20 mph    
Max Gust Speed 25 mph    
Visibility 3 miles    
Events Fog , Snow    
T = Trace of Precipitation, MM = Missing Value Source: NWS Daily Summary

Daily Weather History Graph

Daily Weather History Graph

Search for Another Location

Airport or City:

Trip Planner

Search our weather history database for the weather conditions in past years. The results will help you decide how hot, cold, wet, or windy it might be!

Date:

Astronomy

Mar. 19, 2013 Rise Set
Actual Time 6:58 AM EDT 7:05 PM EDT
Civil Twilight 6:29 AM EDT 7:34 PM EDT
Nautical Twilight 5:55 AM EDT 8:08 PM EDT
Astronomical Twilight 5:20 AM EDT 8:43 PM EDT
Moon 11:32 AM EDT (3/19) 2:03 AM EDT (3/19)
Length of Visible Light 13h 05m
Length of Day
12h 06m
Waxing Crescent, 49% of the Moon is Illuminated
Mar 19
Waxing Crescent
Mar 19
First Quarter
Mar 27
Full
Apr 3
Last Quarter
Apr 10
New

Hourly Weather History & Observations

Time (EDT) Temp. Windchill Dew Point Humidity Pressure Visibility Wind Dir Wind Speed Gust Speed Precip Events Conditions
12:17 AM 28.4 °F 16.2 °F 21.2 °F 74% 30.08 in 2.5 mi SSE 17.3 mph 21.9 mph 0.00 in Snow Light Snow
12:25 AM 28.4 °F 18.5 °F 23.0 °F 80% 30.07 in 1.2 mi SSE 11.5 mph 21.9 mph 0.00 in Snow Light Snow
12:40 AM 28.4 °F 16.6 °F 24.8 °F 86% 30.06 in 2.5 mi SSE 16.1 mph 21.9 mph 0.00 in Snow Light Snow
12:49 AM 28.4 °F 16.2 °F 24.8 °F 86% 30.05 in 3.0 mi SSE 17.3 mph 25.3 mph 0.00 in Snow Light Snow
12:53 AM 28.9 °F 16.9 °F 25.0 °F 85% 30.06 in 3.0 mi SSE 17.3 mph 25.3 mph 0.00 in Snow Light Snow
1:31 AM 28.4 °F 17.5 °F 24.8 °F 86% 30.03 in 2.5 mi South 13.8 mph 20.7 mph 0.00 in Snow Light Snow
1:36 AM 28.4 °F 17.5 °F 24.8 °F 86% 30.03 in 3.0 mi South 13.8 mph 20.7 mph 0.00 in Snow Light Snow
1:50 AM 28.4 °F 17.5 °F 24.8 °F 86% 30.02 in 1.8 mi SSE 13.8 mph - 0.00 in Snow Light Snow
1:53 AM 28.9 °F 19.2 °F 25.0 °F 85% 30.03 in 1.8 mi SSE 11.5 mph - 0.00 in Snow Light Snow
2:51 AM 28.4 °F 18.5 °F 26.6 °F 93% 29.99 in 0.8 mi SSE 11.5 mph - 0.02 in Snow Light Snow
2:53 AM 28.0 °F 18.6 °F 26.1 °F 92% 30.00 in 0.8 mi SSE 10.4 mph - 0.02 in Snow Light Snow
3:03 AM 28.4 °F 17.5 °F 26.6 °F 93% 29.98 in 0.8 mi SSE 13.8 mph - 0.00 in Snow Light Snow
3:10 AM 28.4 °F 18.5 °F 26.6 °F 93% 29.98 in 0.8 mi SSE 11.5 mph - 0.01 in Snow Light Snow
3:24 AM 28.4 °F 18.0 °F 26.6 °F 93% 29.97 in 1.0 mi SSE 12.7 mph - 0.01 in Snow Light Snow
3:37 AM 28.4 °F 18.0 °F 26.6 °F 93% 29.96 in 0.8 mi SSE 12.7 mph - 0.02 in Snow Light Snow
3:53 AM 28.0 °F 17.0 °F 26.1 °F 92% 29.97 in 0.8 mi SSE 13.8 mph - 0.02 in Snow Light Snow
4:09 AM 28.4 °F 18.0 °F 26.6 °F 93% 29.95 in 1.0 mi SSE 12.7 mph - 0.01 in Snow Light Snow
4:17 AM 28.4 °F 18.0 °F 26.6 °F 93% 29.95 in 0.5 mi SSE 12.7 mph - 0.01 in Fog , Snow Snow
4:35 AM 28.4 °F 19.1 °F 26.6 °F 93% 29.93 in 0.8 mi SSE 10.4 mph - 0.02 in Snow Light Snow
4:53 AM 28.0 °F 18.1 °F 26.1 °F 92% 29.94 in 1.0 mi SSE 11.5 mph - 0.03 in Snow Light Snow
5:04 AM 28.4 °F 18.0 °F 26.6 °F 93% 29.93 in 1.2 mi SSE 12.7 mph - 0.00 in Snow Light Snow
5:47 AM 28.4 °F 18.5 °F 26.6 °F 93% 29.92 in 2.0 mi SSE 11.5 mph - 0.01 in Snow Light Snow
5:53 AM 28.9 °F 18.6 °F 26.1 °F 89% 29.93 in 2.5 mi South 12.7 mph 21.9 mph 0.01 in Snow Light Snow
6:13 AM 28.4 °F 17.5 °F 26.6 °F 93% 29.91 in 3.0 mi South 13.8 mph - 0.00 in Snow Light Snow
6:44 AM 28.4 °F 16.6 °F 26.6 °F 93% 29.91 in 2.0 mi South 16.1 mph 23.0 mph 0.01 in Snow Light Snow
6:51 AM 28.4 °F 17.0 °F 26.6 °F 93% 29.91 in 1.2 mi South 15.0 mph - 0.01 in Snow Light Snow
6:53 AM 28.9 °F 17.3 °F 26.1 °F 89% 29.92 in 1.2 mi South 16.1 mph - 0.01 in Snow Light Snow
7:06 AM 28.4 °F 17.0 °F 26.6 °F 93% 29.90 in 3.0 mi SSE 15.0 mph 21.9 mph 0.00 in Snow Light Snow
7:19 AM 30.2 °F 20.8 °F 26.6 °F 86% 29.89 in 2.5 mi South 11.5 mph 23.0 mph 0.00 in Snow Light Snow
7:30 AM 30.2 °F 19.8 °F 24.8 °F 80% 29.89 in 5.0 mi SSE 13.8 mph 20.7 mph 0.00 in Snow Light Snow
7:53 AM 30.0 °F 19.5 °F 25.0 °F 82% 29.90 in 9.0 mi SSE 13.8 mph 21.9 mph 0.00 in   Overcast
8:45 AM 30.2 °F 21.9 °F 26.6 °F 86% 29.87 in 2.5 mi SSE 9.2 mph - 0.00 in Snow Light Snow
8:53 AM 30.9 °F 21.7 °F 25.0 °F 79% 29.88 in 5.0 mi SSE 11.5 mph - 0.00 in Snow Light Snow
9:51 AM 30.2 °F 21.3 °F 26.6 °F 86% 29.86 in 1.8 mi South 10.4 mph 16.1 mph 0.00 in Snow Light Snow
9:53 AM 30.9 °F 22.2 °F 26.1 °F 82% 29.87 in 1.5 mi South 10.4 mph 16.1 mph 0.00 in Snow Light Snow
10:01 AM 30.2 °F 20.8 °F 26.6 °F 86% 29.85 in 2.0 mi South 11.5 mph - 0.00 in Snow Light Snow
10:08 AM 30.2 °F 21.9 °F 26.6 °F 86% 29.85 in 5.0 mi South 9.2 mph - 0.00 in Snow Light Snow
10:19 AM 32.0 °F 24.2 °F 26.6 °F 80% 29.85 in 3.0 mi South 9.2 mph - 0.00 in Snow Light Snow
10:21 AM 32.0 °F 22.5 °F 26.6 °F 80% 29.85 in 2.0 mi South 12.7 mph 19.6 mph 0.00 in Snow Light Snow
10:28 AM 32.0 °F 22.1 °F 26.6 °F 80% 29.85 in 1.2 mi South 13.8 mph 23.0 mph 0.00 in Snow Light Snow
10:36 AM 32.0 °F 22.5 °F 26.6 °F 80% 29.85 in 3.0 mi SSE 12.7 mph 23.0 mph 0.00 in Snow Light Snow
10:41 AM 30.2 °F 20.8 °F 26.6 °F 86% 29.84 in 1.8 mi SSE 11.5 mph - 0.00 in Snow Light Snow
10:53 AM 32.0 °F 23.0 °F 27.0 °F 82% 29.85 in 2.5 mi SSE 11.5 mph - 0.00 in Snow Light Snow
11:02 AM 32.0 °F 21.6 °F 26.6 °F 80% 29.85 in 5.0 mi South 15.0 mph 20.7 mph 0.00 in Snow Light Snow
11:12 AM 32.0 °F 23.0 °F 26.6 °F 80% 29.84 in 9.0 mi South 11.5 mph - 0.00 in Snow Light Snow
11:32 AM 32.0 °F 23.0 °F 26.6 °F 80% 29.83 in 1.8 mi SSE 11.5 mph - 0.00 in Snow Light Snow
11:39 AM 30.2 °F 22.6 °F 28.4 °F 93% 29.83 in 0.8 mi SSE 8.1 mph - 0.00 in Snow Light Snow
11:53 AM 30.9 °F 24.3 °F 28.0 °F 89% 29.84 in 0.8 mi SE 6.9 mph - 0.00 in Snow Light Snow
11:56 AM 30.2 °F 22.6 °F 28.4 °F 93% 29.83 in 0.8 mi SSE 8.1 mph - 0.00 in Snow Light Snow
12:06 PM 30.2 °F 21.9 °F 28.4 °F 93% 29.83 in 0.5 mi SSE 9.2 mph - 0.01 in Fog , Snow Snow
12:13 PM 30.2 °F 21.3 °F 28.4 °F 93% 29.82 in 1.0 mi SSE 10.4 mph - 0.01 in Snow Light Snow
12:20 PM 30.2 °F 20.8 °F 28.4 °F 93% 29.82 in 1.5 mi SSE 11.5 mph - 0.01 in Snow Light Snow
12:53 PM 30.9 °F 21.2 °F 28.9 °F 92% 29.83 in 1.8 mi SSE 12.7 mph - 0.01 in Snow Light Snow
1:00 PM 32.0 °F 21.6 °F 28.4 °F 87% 29.81 in 2.5 mi SSE 15.0 mph 18.4 mph 0.00 in Snow Light Snow
1:07 PM 32.0 °F 22.1 °F 28.4 °F 87% 29.80 in 3.0 mi SSE 13.8 mph - 0.00 in Snow Light Snow
1:12 PM 30.2 °F 19.8 °F 28.4 °F 93% 29.80 in 1.8 mi SSE 13.8 mph - 0.00 in Snow Light Snow
1:23 PM 32.0 °F 23.0 °F 28.4 °F 87% 29.80 in 3.0 mi SSE 11.5 mph - 0.00 in Snow Light Snow
1:36 PM 32.0 °F 23.6 °F 28.4 °F 87% 29.80 in 6.0 mi SSE 10.4 mph - 0.00 in Snow Light Snow
1:48 PM 32.0 °F 23.6 °F 28.4 °F 87% 29.79 in 2.0 mi SE 10.4 mph - 0.00 in Snow Light Snow
1:53 PM 32.0 °F 23.0 °F 30.0 °F 92% 29.80 in 1.5 mi SE 11.5 mph - 0.00 in Snow Light Snow
2:14 PM 32.0 °F 24.8 °F 30.2 °F 93% 29.77 in 1.0 mi SE 8.1 mph - 0.00 in Snow Light Snow
2:27 PM 32.0 °F 24.8 °F 30.2 °F 93% 29.76 in 2.5 mi SE 8.1 mph - 0.00 in Snow Light Snow
2:35 PM 32.0 °F 23.6 °F 30.2 °F 93% 29.76 in 3.0 mi SE 10.4 mph - 0.00 in Snow Light Snow
2:53 PM 30.9 °F 22.8 °F 28.9 °F 92% 29.78 in 6.0 mi SE 9.2 mph - 0.00 in Snow Light Snow
3:25 PM 30.2 °F 23.4 °F 28.4 °F 93% 29.75 in 10.0 mi SE 6.9 mph - 0.00 in   Overcast
3:49 PM 30.2 °F 24.3 °F 28.4 °F 93% 29.74 in 9.0 mi ESE 5.8 mph - 0.00 in   Overcast
3:53 PM 30.9 °F 26.2 °F 30.0 °F 96% 29.75 in 7.0 mi ESE 4.6 mph - 0.00 in Snow Light Snow
4:10 PM 32.0 °F 26.4 °F 30.2 °F 93% 29.74 in 5.0 mi ESE 5.8 mph - 0.01 in Snow Light Snow
4:34 PM 32.0 °F 27.5 °F 30.2 °F 93% 29.74 in 1.8 mi SE 4.6 mph - 0.01 in Snow Light Snow
4:43 PM 32.0 °F 27.5 °F 30.2 °F 93% 29.73 in 3.0 mi SSE 4.6 mph - 0.01 in Snow Light Snow
4:49 PM 32.0 °F 28.7 °F 30.2 °F 93% 29.74 in 2.5 mi SE 3.5 mph - 0.01 in Snow Light Snow
4:53 PM 32.0 °F 28.7 °F 30.0 °F 92% 29.75 in 1.5 mi SSE 3.5 mph - 0.01 in Snow Light Snow
5:02 PM 32.0 °F 27.5 °F 30.2 °F 93% 29.73 in 2.0 mi ESE 4.6 mph - 0.01 in Snow Light Snow
5:15 PM 32.0 °F - 30.2 °F 93% 29.73 in 1.8 mi Calm Calm - 0.01 in Snow Light Snow
5:21 PM 32.0 °F 28.7 °F 30.2 °F 93% 29.73 in 1.8 mi East 3.5 mph - 0.01 in Snow Light Snow
5:53 PM 32.0 °F 27.5 °F 30.0 °F 92% 29.74 in 2.5 mi ESE 4.6 mph - 0.02 in Snow Light Snow
6:08 PM 32.0 °F 25.6 °F 30.2 °F 93% 29.72 in 1.5 mi ESE 6.9 mph - 0.01 in Snow Light Snow
6:25 PM 32.0 °F 26.4 °F 30.2 °F 93% 29.72 in 1.5 mi SE 5.8 mph - 0.01 in Snow Light Snow
6:53 PM 30.9 °F 24.3 °F 30.0 °F 96% 29.73 in 1.5 mi SE 6.9 mph - 0.02 in Snow Light Snow
7:17 PM 30.2 °F 23.4 °F 30.2 °F 100% 29.72 in 2.5 mi ESE 6.9 mph - 0.00 in Snow Light Snow
7:37 PM 30.2 °F 25.4 °F 30.2 °F 100% 29.72 in 2.0 mi SE 4.6 mph - 0.01 in Snow Light Snow
7:53 PM 30.9 °F 25.2 °F 30.0 °F 96% 29.73 in 2.5 mi SE 5.8 mph - 0.01 in Snow Light Snow
8:26 PM 30.2 °F 22.6 °F 30.2 °F 100% 29.72 in 3.0 mi SE 8.1 mph - 0.01 in Snow Light Snow
8:35 PM 30.2 °F 23.4 °F 30.2 °F 100% 29.72 in 2.0 mi SE 6.9 mph - 0.01 in Snow Light Snow
8:49 PM 30.2 °F 23.4 °F 30.2 °F 100% 29.72 in 3.0 mi SSE 6.9 mph - 0.01 in Snow Light Snow
8:53 PM 30.9 °F 24.3 °F 30.0 °F 96% 29.74 in 3.0 mi SSE 6.9 mph - 0.01 in Snow Light Snow
9:06 PM 30.2 °F 23.4 °F 30.2 °F 100% 29.73 in 1.8 mi SSE 6.9 mph - 0.00 in Snow Light Snow
9:35 PM 30.2 °F 21.3 °F 30.2 °F 100% 29.72 in 2.0 mi SSE 10.4 mph - 0.01 in Snow Light Snow
9:53 PM 32.0 °F - 30.0 °F 92% 29.74 in 3.0 mi Calm Calm - 0.01 in Snow Light Snow
10:03 PM 32.0 °F - 30.2 °F 93% 29.73 in 5.0 mi Calm Calm - 0.00 in Snow Light Snow
10:53 PM 32.0 °F 27.5 °F 26.1 °F 79% 29.74 in 10.0 mi West 4.6 mph - 0.00 in   Overcast
11:53 PM 30.0 °F - 24.1 °F 79% 29.73 in 10.0 mi Calm Calm - N/A   Overcast